SCP
0 0 0 0 0 0 0 0 0 0 0 0 0 0 0 0 0 0 0 0 0 0
0 0 0 0 0 0 0 0 0 0 0 0 0 0 0 0 0 0 0 0 0 0
0 0 0 0 0 0 0 0 0 0 0 0 0 0 0 0 0 0 0 0 0 0
0 0 0 0 0 0 0 0 0 0 0 0 0 0 0 0 0 0 0 0 0 0
0 0 0 0 0 0 0 0 0 0 0 0 0 0 0 0 0 0 0 0 0 0
0 0 0 0 0 0 0 0 0 0 0 0 0 0 0 0 0 0 0 0 0 0
0 0 0 0 0 0 0 0 0 0 0 0 0 0 0 0 0 0 0 0 0 0
0 0 0 0 0 0 0 0 0 0 0 0 0 0 0 0 0 0 0 0 0 0
0 0 0 0 0 0 0 0 0 0 0 0 0 0 0 0 0 0 0 0 0 0
0 0 0 0 0 0 0 0 0 0 0 0 0 0 0 0 0 0 0 0 0 0
0 0 0 0 0 0 0 0 0 0 0 0 0 0 0 0 0 0 0 0 0 0
0 0 0 0 0 0 0 0 0 0 0 0 0 0 0 0 0 0 0 0 0 0
0 0 0 0 0 0 0 0 0 0 0 0 0 0 0 0 0 0 0 0 0 0
0 0 0 0 0 0 0 0 0 0 0 0 0 0 0 0 0 0 0 0 0 0
Wind_Speed_500mb
80 79 77 71 66 60 56 51 52 57 55 52 47 45 44 44 44 42 37 36 48 63
84 82 82 75 69 63 56 53 54 59 61 57 56 51 46 47 51 49 47 41 39 63
85 82 80 73 73 68 61 57 56 61 64 63 62 56 52 46 51 53 51 53 46 62
80 79 76 73 73 70 63 61 58 64 68 69 66 60 56 52 51 53 53 56 62 62
73 75 74 72 72 70 66 61 59 63 70 73 70 62 60 57 54 54 54 58 59 60
70 71 72 71 69 68 63 62 60 63 71 76 74 69 63 57 52 55 55 58 58 53
63 66 68 66 65 63 62 60 59 62 66 74 74 70 66 60 54 54 55 60 63 61
56 59 59 58 58 58 58 57 57 62 64 70 74 73 70 64 59 55 56 58 61 61
47 51 54 55 56 55 50 53 56 58 60 65 68 73 70 67 64 59 57 60 60 59
47 52 55 53 54 52 52 49 53 52 52 57 59 62 66 68 69 67 63 62 62 62
43 49 52 55 52 50 50 47 48 50 51 52 56 57 56 61 66 71 72 69 66 63
40 45 49 46 49 50 48 48 48 46 47 50 51 49 52 56 62 68 71 74 73 69
39 43 44 41 40 49 49 48 47 47 49 42 39 41 48 53 59 65 71 76 77 76
31 34 40 41 39 37 44 47 48 47 53 47 46 46 49 55 60 64 66 71 74 79
Wind_Direction_500mb
230 228 227 227 227 228 232 225 212 207 204 198 192 193 195 195 195 197 195 202 208 204
229 226 225 223 226 229 232 230 215 210 207 202 199 199 200 203 204 206 203 203 208 203
229 226 225 223 225 226 228 230 218 212 207 206 203 205 208 208 207 208 209 207 204 204
228 227 225 223 224 226 226 229 223 214 209 208 206 211 211 211 213 214 215 209 205 211
229 227 224 222 223 224 224 228 229 215 210 208 208 213 215 215 216 217 214 208 207 214
227 226 224 221 221 222 223 226 228 217 208 209 212 215 218 218 219 219 219 216 214 214
224 224 223 220 220 221 222 225 227 219 213 211 214 219 222 221 219 220 223 223 224 224
219 221 221 220 220 222 221 227 231 220 218 216 217 220 223 225 223 223 223 224 226 230
213 214 215 215 217 216 221 220 219 222 224 223 223 220 222 224 227 229 229 227 227 229
209 211 211 212 212 216 221 219 220 222 225 226 228 226 223 225 231 234 235 235 235 235
209 208 212 211 217 221 223 224 224 227 228 231 232 231 230 230 236 238 239 239 238 240
204 210 217 221 222 224 225 226 228 230 232 235 234 229 232 234 238 242 241 240 240 239
212 213 215 224 231 229 230 233 234 234 236 239 235 231 235 238 241 243 245 244 244 241
209 215 218 216 222 232 234 237 241 242 240 244 238 238 241 241 244 246 248 248 247 247
Wind_Speed_850mb
80 79 77 71 66 60 56 51 52 57 55 52 47 45 44 44 44 42 37 36 48 63
84 82 82 75 69 63 56 53 54 59 61 57 56 51 46 47 51 49 47 41 39 63
85 82 80 73 73 68 61 57 56 61 64 63 62 56 52 46 51 53 51 53 46 62
80 79 76 73 73 70 63 61 58 64 68 69 66 60 56 52 51 53 53 56 62 62
73 75 74 72 72 70 66 61 59 63 70 73 70 62 60 57 54 54 54 58 59 60
70 71 72 71 69 68 63 62 60 63 71 76 74 69 63 57 52 55 55 58 58 53
63 66 68 66 65 63 62 60 59 62 66 74 74 70 66 60 54 54 55 60 63 61
56 59 59 58 58 58 58 57 57 62 64 70 74 73 70 64 59 55 56 58 61 61
47 51 54 55 56 55 50 53 56 58 60 65 68 73 70 67 64 59 57 60 60 59
47 52 55 53 54 52 52 49 53 52 52 57 59 62 66 68 69 67 63 62 62 62
43 49 52 55 52 50 50 47 48 50 51 52 56 57 56 61 66 71 72 69 66 63
40 45 49 46 49 50 48 48 48 46 47 50 51 49 52 56 62 68 71 74 73 69
39 43 44 41 40 49 49 48 47 47 49 42 39 41 48 53 59 65 71 76 77 76
31 34 40 41 39 37 44 47 48 47 53 47 46 46 49 55 60 64 66 71 74 79
Wind_Direction_850mb
230 228 227 227 227 228 232 225 212 207 204 198 192 193 195 195 195 197 195 202 208 204
229 226 225 223 226 229 232 230 215 210 207 202 199 199 200 203 204 206 203 203 208 203
229 226 225 223 225 226 228 230 218 212 207 206 203 205 208 208 207 208 209 207 204 204
228 227 225 223 224 226 226 229 223 214 209 208 206 211 211 211 213 214 215 209 205 211
229 227 224 222 223 224 224 228 229 215 210 208 208 213 215 215 216 217 214 208 207 214
227 226 224 221 221 222 223 226 228 217 208 209 212 215 218 218 219 219 219 216 214 214
224 224 223 220 220 221 222 225 227 219 213 211 214 219 222 221 219 220 223 223 224 224
219 221 221 220 220 222 221 227 231 220 218 216 217 220 223 225 223 223 223 224 226 230
213 214 215 215 217 216 221 220 219 222 224 223 223 220 222 224 227 229 229 227 227 229
209 211 211 212 212 216 221 219 220 222 225 226 228 226 223 225 231 234 235 235 235 235
209 208 212 211 217 221 223 224 224 227 228 231 232 231 230 230 236 238 239 239 238 240
204 210 217 221 222 224 225 226 228 230 232 235 234 229 232 234 238 242 241 240 240 239
212 213 215 224 231 229 230 233 234 234 236 239 235 231 235 238 241 243 245 244 244 241
209 215 218 216 222 232 234 237 241 242 240 244 238 238 241 241 244 246 248 248 247 247